Location: Goettingen
(51.5300°N, 9.9433°E)
Time: 17:40:09
(UTC+02:00)

ISS - Pass Details

Date: 09 May 2026
Orbit: 414 x 424 km, 51.6° (Epoch: 13 May)

Event Time Altitude Azimuth Distance (km) Brightness Sun altitude
Rises 01:41:00 0° 276° (W) 2,356 0.1 -21.0°
Enters shadow 01:41:23 - 276° (W) 2,200 -0.1 -21.0°
Exits shadow 01:50:52 - 99° (E) 1,933 -0.4 -20.8°
Sets 01:51:55 0° 99° (E) 2,361 0.1 -20.7°
